SCP
0 0 0 0 0 0 0 0 0 0 0 0 0 0 0 0 0 0 0 0 0 0 0 0 0 0 0 0 0 0 0 0 0 0 0 0 0 0 0 0 0 0 0
0 0 0 0 0 0 0 0 0 0 0 0 0 0 0 0 0 0 0 0 0 0 0 0 0 0 0 0 0 0 0 0 0 0 0 0 0 0 0 0 0 0 0
0 0 0 0 0 0 0 0 0 0 0 0 0 0 0 0 0 0 0 0 0 0 0 0 0 0 0 0 0 0 0 0 0 0 0 0 0 0 0 0 0 0 0
0 0 0 0 0 0 0 0 0 0 0 0 0 0 0 0 0 0 0 0 0 0 0 0 0 0 0 0 0 0 0 0 0 0 0 0 0 0 0 0 0 0 0
0 0 0 0 0 0 0 0 0 0 0 0 0 0 0 0 0 0 0 0 0 0 0 0 0 0 0 0 0 0 0 0 0 0 0 0 0 0 0 0 0 0 0
0 0 0 0 0 0 0 0 0 0 0 0 0 0 0 0 0 0 0 0 0 0 0 0 0 0 0 0 0 0 0 0 0 0 0 0 0 0 0 0 0 0 0
0 0 0 0 0 0 0 0 0 0 0 0 0 0 0 0 0 0 0 0 0 0 0 0 0 0 0 0 0 0 0 0 0 0 0 0 0 0 0 0 0 0 0
0 0 0 0 0 0 0 0 0 0 0 0 0 0 0 0 0 0 0 0 0 0 0 0 0 0 0 0 0 0 0 0 0 0 0 0 0 0 0 0 0 0 0
0 0 0 0 0 0 0 0 0 0 0 0 0 0 0 0 0 0 0 0 0 0 0 0 0 0 0 0 0 0 0 0 0 0 0 0 0 0 0 0 0 0 0
0 0 0 0 0 0 0 0 0 0 0 0 0 0 0 0 0 0 0 0 0 0 0 0 0 0 0 0 0 0 0 0 0 0 0 0 0 0 0 0 0 0 0
0 0 0 0 0 0 0 0 0 0 0 0 0 0 0 0 0 0 0 0 0 0 0 0 0 0 0 0 0 0 0 0 0 0 0 0 0 0 0 0 0 0 0
0 0 0 0 0 0 0 0 0 0 0 0 0 0 0 0 0 0 0 0 0 0 0 0 0 0 0 0 0 0 0 0 0 0 0 0 0 0 0 0 0 0 0
0 0 0 0 0 0 0 0 0 0 0 0 0 0 0 0 0 0 0 0 0 0 0 0 0 0 0 0 0 0 0 0 0 0 0 0 0 0 0 0 0 0 0
0 0 0 0 0 0 0 0 0 0 0 0 0 0 0 0 0 0 0 0 0 0 0 0 0 0 0 0 0 0 0 0 0 0 0 0 0 0 0 0 0 0 0
0 0 0 0 0 0 0 0 0 0 0 0 0 0 0 0 0 0 0 0 0 0 0 0 0 0 0 0 0 0 0 0 0 0 0 0 0 0 0 0 0 0 0
0 0 0 0 0 0 0 0 0 0 0 0 0 0 0 0 0 0 0 0 0 0 0 0 0 0 0 0 0 0 0 0 0 0 0 0 0 0 0 0 0 0 0
0 0 0 0 0 0 0 0 0 0 0 0 0 0 0 0 0 0 0 0 0 0 0 0 0 0 0 0 0 0 0 0 0 0 0 0 0 0 0 0 0 0 0
0 0 0 0 0 0 0 0 0 0 0 0 0 0 0 0 0 0 0 0 -0 0 0 0 0 0 0 0 0 0 0 0 0 0 0 0 0 0 0 0 0 0 0
-0 -0 -0 0 0 0 0 0 0 0 0 0 0 0 0 0 0 0 0 0 0 0 0 0 0 0 0 0 0 0 0 0 0 0 0 0 0 0 0 0 0 0 0
0 -0 -0 0 0 0 0 0 0 0 0 0 0 0 0 0 0 0 0 0 0 0 0 0 0 0 0 0 0 0 0 0 0 0 0 0 0 0 0 0 0 0 0
0 0 0 0 0 0 0 0 0 0 0 0 0 0 0 0 0 0 0 0 0 0 0 0 0 0 0 0 0 0 0 0 0 0 0 0 0 0 0 0 0 0 0
0 0 0 0 0 0 0 0 0 0 0 -0 0 0 0 0 0 0 0 0 0 0 0 0 0 0 0 0 0 0 0 0 0 0 0 0 0 0 0 0 0 0 0
0 0 0 0 0 0 0 0 0 0 0 -0 -0 -0 0 0 0 0 0 0 0 0 0 0 0 0 0 0 0 0 0 0 0 0 0 0 0 0 0 0 0 0 0
0 0 0 0 0 0 0 0 0 0 0 0 0 0 0 0 0 0 0 0 0 0 0 0 0 0 0 0 0 0 0 0 0 0 0 0 0 0 0 0 0 0 0
-0 -0 0 0 0 0 0 0 0 0 0 0 0 0 0 0 0 0 0 0 0 0 0 0 0 0 0 0 0 0 0 0 0 0 0 0 0 0 0 0 0 0 0
-0 -0 0 0 0 0 0 0 0 0 0 0 0 0 0 0 0 0 0 0 0 0 0 0 0 0 0 0 0 0 0 0 0 0 0 0 0 0 0 0 0 0 0
Wind_Speed
6 4 4 3 3 3 3 4 3 4 3 2 2 3 3 3 4 4 6 6 6 7 6 5 5 5 5 6 6 4 4 3 2 1 3 3 4 6 6 5 5 6 6
4 4 3 3 3 4 4 4 5 4 4 4 4 4 4 4 4 4 5 6 7 7 6 7 6 6 5 6 6 5 4 3 3 2 2 2 3 4 5 5 5 6 5
7 6 4 4 4 4 5 5 6 5 5 5 3 2 2 2 3 4 4 6 7 7 7 8 7 6 6 6 7 7 7 5 4 4 4 3 4 2 3 4 5 5 5
6 5 5 5 5 6 5 5 5 5 5 5 4 5 5 5 6 5 5 5 6 7 7 8 8 7 6 7 7 7 5 6 5 4 4 4 3 3 3 3 3 5 6
7 6 6 6 6 5 4 4 4 4 4 5 5 6 6 6 5 4 6 6 5 6 7 7 7 7 7 7 8 7 6 6 6 5 4 4 4 4 4 5 4 3 4
4 4 4 4 4 3 3 3 3 4 4 4 5 6 7 7 6 6 6 5 4 5 7 7 7 7 7 8 8 8 8 7 7 6 5 5 5 5 4 5 5 5 5
3 2 3 3 3 3 3 3 3 5 4 4 5 6 7 7 7 7 6 6 5 5 7 7 7 7 8 8 8 7 8 8 8 8 7 6 6 4 4 4 5 5 4
3 4 4 4 4 4 4 4 4 5 4 4 5 5 5 5 5 6 6 6 6 6 6 7 7 8 9 9 8 7 8 7 8 9 8 6 6 5 5 4 4 5 5
4 4 4 4 4 4 4 4 4 5 5 5 4 4 5 5 6 6 6 6 6 6 6 7 7 8 8 9 8 7 8 8 8 8 9 7 6 5 5 5 5 5 6
4 4 4 4 4 4 4 4 4 5 5 4 4 4 5 5 5 5 6 6 6 6 6 7 7 7 8 8 8 7 7 8 8 7 8 7 5 5 5 5 5 5 6
4 4 4 4 4 3 3 3 3 4 4 4 4 4 5 5 5 5 6 6 6 6 6 6 7 7 7 7 7 7 7 8 7 7 8 8 7 6 5 5 5 5 5
3 3 4 4 3 3 3 3 4 4 4 4 4 4 4 4 4 5 5 5 5 5 6 6 6 7 7 7 7 7 7 8 8 8 8 8 6 7 6 5 6 6 5
4 4 4 4 3 3 3 4 4 4 4 3 3 4 4 4 5 5 5 5 5 5 5 5 6 7 6 6 7 7 7 8 8 8 8 8 7 8 6 6 6 5 4
3 3 4 4 4 3 4 4 4 4 4 4 4 4 5 5 5 5 4 4 4 4 5 5 6 6 5 6 6 6 6 7 7 8 8 8 8 8 7 6 6 5 5
4 4 4 4 4 4 4 4 4 4 4 4 5 5 5 4 4 4 4 4 4 5 4 5 5 5 4 5 6 6 6 6 6 6 7 7 8 9 7 6 5 5 5
4 3 4 4 5 5 5 4 5 5 4 4 5 5 5 5 4 4 4 4 4 5 4 5 5 5 5 6 7 6 5 5 5 5 5 6 7 8 9 9 8 8 7
3 4 4 4 5 5 4 4 5 5 4 4 5 5 5 4 5 5 5 5 5 4 5 5 4 5 5 6 6 6 4 4 4 4 4 4 5 6 5 6 6 7 9
4 4 4 4 5 4 4 4 4 4 4 4 5 5 4 5 5 4 5 5 4 4 5 5 4 5 5 6 6 4 3 2 2 3 4 4 4 4 4 3 3 3 4
3 3 4 4 4 5 5 4 4 4 4 5 6 5 5 5 5 5 5 5 4 4 4 4 4 4 5 5 4 3 2 2 2 3 3 4 3 4 4 3 3 2 2
3 3 3 4 4 5 4 4 5 5 5 6 6 6 5 4 5 5 5 4 3 4 4 4 3 4 4 5 4 3 1 2 2 2 2 3 3 4 4 3 3 3 2
4 4 4 4 4 5 4 4 5 5 6 6 6 5 5 4 4 4 4 3 3 3 3 3 3 3 4 4 4 3 1 2 2 1 1 2 3 3 3 3 3 4 3
4 4 4 5 5 4 3 4 6 6 6 5 5 5 5 4 3 3 3 2 2 2 2 2 3 2 2 3 3 3 3 2 2 2 2 1 2 3 2 2 3 4 3
5 4 4 6 6 5 4 5 7 6 5 5 5 5 5 4 3 2 2 2 1 1 1 1 2 3 2 1 2 2 2 2 1 1 2 1 1 1 2 3 3 3 3
5 5 5 6 6 6 5 5 5 4 4 5 5 4 4 4 3 2 2 1 1 1 1 1 2 2 2 2 1 1 0 0 0 0 1 1 2 2 2 2 2 2 3
5 4 5 6 7 7 6 5 4 4 4 4 4 4 3 2 2 2 2 2 2 2 2 2 2 2 2 3 3 2 1 1 1 0 1 2 1 1 1 2 2 2 3
5 5 5 6 7 7 6 5 4 3 3 4 4 3 2 2 1 1 3 3 3 5 5 4 3 2 3 4 4 3 2 2 0 1 1 1 2 2 2 2 2 3 3
Wind_Direction
233 227 221 221 202 201 201 211 215 230 219 221 228 232 238 237 234 233 232 234 233 229 226 229 219 215 216 215 209 207 215 228 212 248 279 271 248 241 236 232 231 230 228
233 235 231 223 202 207 213 219 224 232 229 223 221 218 225 233 235 237 238 235 233 230 230 222 217 215 218 219 212 202 208 224 205 195 249 275 277 248 237 228 227 228 226
209 220 223 225 209 218 224 228 232 235 238 233 229 240 248 253 249 242 239 238 235 233 229 225 222 217 215 220 217 207 207 218 219 198 198 217 238 279 253 235 234 227 227
208 216 220 224 218 227 229 231 235 238 240 233 225 227 236 245 244 240 241 249 240 237 227 223 223 220 219 222 222 219 217 207 221 219 216 226 224 232 267 262 244 238 234
205 214 221 223 225 223 227 233 235 242 245 238 232 232 242 244 247 245 245 248 243 237 230 224 222 221 221 222 221 219 220 213 218 222 219 228 240 231 236 261 262 261 242
213 222 234 229 233 229 234 242 243 253 249 245 242 235 242 246 249 252 248 249 245 239 232 229 225 225 225 224 223 218 220 222 222 226 225 220 222 224 225 240 247 260 264
214 238 244 238 242 242 247 254 253 263 259 256 257 248 241 239 241 247 245 247 247 242 235 233 230 229 227 228 225 218 221 220 222 227 230 228 231 229 231 237 250 257 268
248 250 251 239 238 243 248 254 261 268 273 267 267 257 247 242 244 245 246 245 245 245 242 236 239 236 229 231 225 221 224 224 225 232 231 229 229 224 225 225 232 257 269
265 260 262 252 244 246 251 246 255 269 274 274 272 271 261 258 255 254 251 249 249 249 241 238 243 240 233 228 224 227 229 227 229 231 229 228 228 224 224 221 214 225 252
287 279 272 263 249 243 251 249 245 253 259 264 266 276 275 269 263 259 256 254 251 248 245 244 247 245 238 229 223 228 231 227 231 230 226 228 229 225 221 218 224 223 232
289 284 285 275 260 269 269 265 264 263 267 271 276 283 283 280 273 262 257 254 256 252 249 247 249 246 241 229 225 228 228 230 236 235 225 227 224 225 221 217 221 225 221
290 287 286 294 291 280 280 281 276 270 267 267 278 282 283 285 280 275 270 260 259 256 252 251 253 252 246 232 227 229 231 231 236 236 228 229 226 225 218 216 222 224 220
309 313 314 309 300 293 293 291 288 282 283 284 285 288 286 288 285 277 274 267 262 267 263 257 258 254 246 241 235 231 232 232 237 236 228 227 223 229 221 216 221 225 226
299 308 309 308 306 305 306 302 299 294 299 298 291 286 285 282 283 281 278 271 265 269 273 268 267 261 252 249 242 236 237 236 240 236 228 228 223 225 217 218 219 218 218
312 316 318 319 324 323 314 306 301 304 305 301 296 291 293 290 287 287 283 282 277 276 272 277 280 274 262 254 251 236 235 235 238 238 231 230 231 227 221 219 212 207 210
306 321 330 328 322 314 310 312 307 303 305 299 297 301 302 303 300 292 286 285 285 283 280 276 273 274 272 275 280 261 235 230 235 239 234 233 227 228 231 230 227 216 207
306 314 312 308 304 302 304 303 297 304 309 303 306 309 311 311 305 302 298 286 281 279 280 271 270 272 272 278 283 284 245 226 230 235 235 234 228 222 213 224 231 231 227
309 307 304 306 308 309 308 309 311 312 313 309 306 307 309 305 303 301 297 289 281 276 275 266 264 266 270 277 281 287 266 237 231 236 226 221 218 208 204 203 219 230 230
299 294 294 299 307 312 313 319 319 317 314 307 302 301 300 301 303 300 293 288 284 280 276 266 261 262 269 274 277 281 244 232 245 240 231 216 208 204 203 187 196 233 234
318 308 310 315 317 312 317 319 313 314 305 297 295 297 298 298 295 292 292 290 283 279 285 282 267 259 265 270 268 269 228 223 236 242 230 219 207 206 205 190 187 207 204
310 315 319 314 306 307 319 312 306 298 293 296 299 300 301 298 292 293 295 298 299 299 295 296 290 277 268 267 261 263 243 219 216 229 236 229 219 217 224 222 191 193 171
313 318 318 310 307 306 307 302 296 293 297 299 300 301 302 299 303 301 300 301 299 298 294 302 307 299 290 278 264 264 273 268 206 217 234 222 217 223 228 202 166 154 145
307 309 303 303 305 305 295 289 291 296 304 307 303 299 302 299 297 294 295 301 300 287 298 312 311 316 321 311 291 295 297 302 276 215 224 227 185 196 173 144 138 140 140
306 309 310 308 305 306 302 288 292 297 304 306 303 301 300 302 318 324 313 307 291 283 292 293 291 303 313 322 324 320 322 286 299 189 173 162 133 117 102 95 111 125 136
304 306 304 300 300 304 303 301 301 305 308 308 305 306 304 300 322 331 318 297 284 264 268 265 258 265 287 291 298 296 270 223 188 53 113 125 125 116 102 97 100 104 113
307 306 305 303 302 305 303 305 307 305 308 314 315 311 311 315 321 338 343 340 323 320 315 306 291 288 278 296 300 302 303 308 299 79 112 120 123 124 120 119 110 101 110